sat.trackr.live / text

‹ back to catalog

STARLINK-34008

NORAD 64037 · 2025-102R

PAYLOAD ACTIVE UNKNOWN

§ Identity

Operator
Country
US
Launch date
2025-05-16
Launch site
AFWTR
Launch vehicle
Mass (kg)
RCS (m²)

Purposes: comms

External: N2YO · Heavens-Above · Gunter

§ Orbital elements

Epoch: 2026-05-24T19:26:29.154624Z

Period
96.11 min
Inclination
70.0006°
Eccentricity
0.0002487
Mean motion
14.98338339 rev/d
Perigee alt
570.3 km
Apogee alt
573.8 km
Semi-major
6,950.2 km
B*
2.4928e-4
RAAN
282.5444°
Arg perigee
271.9588°
Mean anomaly
88.1286°
Rev number
5,736

§ Raw data

STARLINK-340081 64037U 25102R   26144.81005966  .00002883  00000+0  24928-3 0  99902 64037  70.0006 282.5444 0002487 271.9588  88.1286 14.98338339 57360

JSON: /api/v1/satellites/64037 · /tle

For live sub-satellite position, see the globe view (requires WebGL).

§ Visibility from observer

Set your observer location to see the next 7 days of passes ≥ 10°. The values pass through the URL so the page stays shareable.

No JS? Fill the form by hand. The geolocation button needs JavaScript.